Regional Weather Roundup
Issued by NWS

Home | Current Version | Previous Version | Text Only | Print | Product List | Glossary On
Versions: 1 2 3 4 5 6 7 8 9 10 11 12 13 14 15 16 17 18 19 20 21 22 23 24 25 26 27 28 29 30 31 32 33 34 35 36 37 38 39 40 41 42 43 44 45 46 47 48 49 50
000
ASUS43 KFSD 212210
RWRSD

WEATHER ROUNDUP FOR SOUTH DAKOTA
NATIONAL WEATHER SERVICE SIOUX FALLS SD
400 PM CST SUN JAN 21 2018

NOTE: "FAIR" INDICATES FEW OR NO CLOUDS BELOW 12,000 FEET WITH NO
SIGNIFICANT WEATHER AND/OR OBSTRUCTIONS TO VISIBILITY.


SDZ001>005-009-010-012>017-212300-
NORTHWEST AND NORTH CENTRAL SOUTH DAKOTA

CITY           SKY/WX    TMP DP  RH WIND       PRES   REMARKS
BUFFALO          N/A     32  23  69 NW17      29.91R WCI  21
FAITH            N/A     34  25  69 N8        29.97R WCI  27
MOBRIDGE       CLOUDY    33  24  69 N8        29.97R WCI  26
$$

SDZ012>016-024>037-041>051-057-063-072>074-212300-
SOUTHWEST AND SOUTH CENTRAL SOUTH DAKOTA

CITY           SKY/WX    TMP DP  RH WIND       PRES   REMARKS
RAPID CTY ARPT CLOUDY    34  22  61 N15       29.96R WCI  24
PIERRE         CLOUDY    33  28  81 N7        29.97R WCI  27
CUSTER         CLOUDY    26  15  63 N6        29.89R WCI  19
ELLSWORTH AFB  CLOUDY    35  20  55 N13       29.96R WCI  26
PHILIP         CLOUDY    33  30  88 N8        29.97R WCI  26
PINE RIDGE     LGT SNOW  29  26  89 N10       29.95R VSB 1   WCI  20
SPEARFISH        N/A     32  21  64 NW7       29.97S WCI  26
WINNER         LGT SNOW  33  31  92 N15       29.92S FOG     WCI  23
$$

SDZ004>011-016>023-039-040-212300-
NORTHEAST SOUTH DAKOTA

CITY           SKY/WX    TMP DP  RH WIND       PRES   REMARKS
ABERDEEN       CLOUDY    31  26  82 N12       30.01F WCI  22
WATERTOWN      CLOUDY    34  31  88 N8        29.94F WCI  27
BROOKINGS      LGT RAIN  36  32  85 NE14      29.90F
SISSETON         N/A     31  26  82 N14       30.01S WCI  21
$$

SDZ017-020-022-023-036>040-048>070-212300-
SOUTHEAST SOUTH DAKOTA

CITY           SKY/WX    TMP DP  RH WIND       PRES   REMARKS
SIOUX FALLS    CLOUDY    37  31  78 NE20G28   29.87R
HURON          CLOUDY    32  30  92 N13       29.95F WCI  22
CHAMBERLAIN    LGT SNOW  34  34 100 N12       29.93S WCI  25
MITCHELL       CLOUDY    35  33  92 N17       29.93R WCI  25
$$

ABBREVIATIONS USED IN REMARKS
   TC - TEMPERATURE IN CELSIUS
  WCI - WIND CHILL INDEX
   HX - HEAT INDEX
  VSB - VISIBILITY




USA.gov is the U.S. government's official web portal to all federal, state and local government web resources and services.